Flag for U.S.A. Weather past 2 weeks in Citrus Heights, California, U.S.A.

Now
88 °F

Passing clouds.


Feels Like: 85 °F
Forecast: 60 / 90 °F
Wind: 7 mph from Southwest

Location: Mather Field

Current Time: Sep 1, 2015 at 3:34:25 PM

Latest Report: Sep 1, 2015 at 1:45 PM


Visibility: 10 mi

Pressure: 29.82 "Hg

Humidity: 25%

Dew point: 48 °F

Location of Citrus HeightsLocation

Historic Weather in Citrus Heights — Graph

°F

Citrus Heights temperature yesterday

Maximum temperature yesterday: 91 °F (at 3:45 PM)
Minimum temperature yesterday: 55 °F (at 4:55 AM)
Average temperature yesterday: 75 °F

Past Weeks' High & Low Weather Summary

 TemperatureHumidityPressure
High104 °F (Aug 17, 3:45 PM)100% (Aug 21, 6:55 AM)30.03 "Hg (Aug 21, 6:55 AM)
Low54 °F (Aug 22, 3:45 AM)12% (Aug 17, 3:45 PM)29.74 "Hg (Aug 17, 4:49 PM)
Average75 °F51%29.89 "Hg
* Reported Aug 17 1:45 PM — Sep 1 1:45 PM, Citrus Heights, Weather by CustomWeather, © 2015

Note: Actual official high and low records may vary slightly from our data, if they occured in-between our weather recording intervals... More about our weather records

Advertising

Citrus Heights weather history for previous 24 hours

 ConditionsComfort  
Time TempWeatherWind HumidityBarometerVisibility
1:45 PM
Tue, Sep 1
88 °FPassing clouds.7 mph25%29.82 "Hg10 mi
12:50 PM86 °FSunny.8 mph27%29.84 "Hg10 mi
11:50 AM82 °FSunny.6 mph30%29.85 "Hg10 mi
10:45 AM77 °FSunny.5 mph44%29.87 "Hg10 mi
9:55 AM73 °FSunny.5 mph44%29.86 "Hg10 mi
8:45 AM68 °FSunny.3 mph60%29.86 "Hg10 mi
7:45 AM64 °FSunny.No wind60%29.86 "Hg10 mi
6:45 AM59 °FClear.No wind68%29.85 "Hg10 mi
5:50 AM55 °FClear.No wind77%29.83 "Hg10 mi
4:45 AM57 °FClear.No wind72%29.83 "Hg10 mi
3:55 AM64 °FClear.7 mph60%29.83 "Hg10 mi
2:55 AM59 °FClear.7 mph68%29.83 "Hg10 mi
10:50 PM
Mon, Aug 31
68 °FClear.6 mph56%29.82 "Hg10 mi
9:50 PM72 °FClear.3 mph53%29.82 "Hg10 mi
7:45 PM82 °FSunny.12 mph35%29.79 "Hg10 mi
6:55 PM88 °FSunny.9 mph25%29.79 "Hg10 mi
3:45 PM91 °FSunny.5 mph21%29.82 "Hg10 mi
Weather by CustomWeather, © 2015

See weather overviewHow to use our weather pages